Regional Weather Roundup
Issued by NWS Sioux Falls, SD

Home | Current Version | Previous Version | Text Only | Print | Product List | Glossary On
Versions: 1 2 3 4 5 6 7 8 9 10 11 12 13 14 15 16 17 18 19 20 21 22 23 24 25 26 27 28 29 30 31 32 33 34 35 36 37 38 39 40 41 42 43 44 45 46 47 48 49 50
000
ASUS43 KFSD 281910
RWRFSD

WEATHER ROUNDUP FOR SE SOUTH DAKOTA/SW MINNESOTA/NW IOWA
NATIONAL WEATHER SERVICE SIOUX FALLS SD
200 PM CDT MON JUL 28 2014

NOTE: "FAIR" INDICATES FEW OR NO CLOUDS BELOW 12,000 FEET WITH NO
SIGNIFICANT WEATHER AND OR OBSTRUCTIONS TO VISIBILITY.


SDZ038>040-050-052>070-282000-
SOUTHEAST SOUTH DAKOTA

CITY           SKY/WX    TMP DP  RH WIND       PRES   REMARKS
CHAMBERLAIN    MOSUNNY   73  52  48 N3        30.29F
HURON          PTSUNNY   72  51  47 N8        30.28S
MADISON        MOCLDY    68  52  56 N8        30.28R
MITCHELL       MOSUNNY   73  54  51 NE7       30.28F
SIOUX FALLS    PTSUNNY   71  54  54 N9G16     30.26S
WINNER         FAIR      77  50  38 N7        30.30F
YANKTON          N/A    N/A N/A N/A MISG        N/A
$$

MNZ071-072-080-081-089-090-097-098-282000-
SOUTHWEST MINNESOTA

CITY           SKY/WX    TMP DP  RH WIND       PRES   REMARKS
FAIRMONT       CLOUDY    72  54  53 N7        30.22S
JACKSON        CLOUDY    70  54  56 CALM      30.24S
LUVERNE        CLOUDY    72  54  53 N7        30.25S
MARSHALL       PTSUNNY   72  54  53 N8        30.23F
MONTEVIDEO     MOSUNNY   73  54  49 NE10G18   30.24F
PIPESTONE      MOSUNNY   72  52  49 NE12      30.26S
REDWOOD FALLS  CLOUDY    72  55  55 N7        30.22F
TRACY          SUNNY     73  55  54 N12       30.24F
WINDOM         PTSUNNY   72  55  56 N8        30.23F
WORTHINGTON    PTSUNNY   70  57  64 N8        30.25F
$$

IAZ001>003-012>014-020>022-031-032-NEZ013-014-SDZ071-282000-
NORTHWEST IOWA

CITY           SKY/WX    TMP DP  RH WIND       PRES   REMARKS
CHEROKEE       PTSUNNY   71  60  68 NW8       30.23F
DENISON        PTSUNNY   72  61  68 NW6G12    30.22F
ESTHERVILLE    CLOUDY    70  58  65 N9        30.22F
LE MARS        MOSUNNY   73  57  56 N8        30.24F
ORANGE CITY    MOSUNNY   73  57  56 N6        30.25S
SHELDON        PTSUNNY   72  59  64 NE6       30.23F
SIOUX CITY     PTSUNNY   75  58  55 NW7       30.24F
SPENCER        CLOUDY    71  57  61 N8        30.23F
STORM LAKE     PTSUNNY   70  61  73 NW5G13    30.24F
$$

ABBREVIATIONS USED IN REMARKS
   TC - TEMPERATURE IN CELSIUS
  WCI - WIND CHILL INDEX
   HX - HEAT INDEX
  VSB - VISIBILITY




USA.gov is the U.S. government's official web portal to all federal, state and local government web resources and services.